This is the latest recevied weather packets stored in our database for station/object SP4LIN-15. If no packets are shown the sender has not sent any weather packets the latest 10 day(s).
| Time | Temp. | Humidity | Pressure | Rain* | Wind** | Luminosity | Snow |
|---|---|---|---|---|---|---|---|
| 1777657048 | 21.67° C | 34% | 1016.3 hPa | 0 mm | - | - | - |
| 1777656148 | 22.78° C | 31% | 1016.1 hPa | 0 mm | - | - | - |
| 1777655248 | 23.33° C | 31% | 1016.3 hPa | 0 mm | - | - | - |
| 1777654349 | 24.44° C | 29% | 1016.2 hPa | 0 mm | - | - | - |
| 1777653448 | 24.44° C | 29% | 1016.1 hPa | 0 mm | - | - | - |
| 1777652549 | 25° C | 29% | 1016.2 hPa | 0 mm | - | - | - |
| 1777651649 | 25° C | 29% | 1016.6 hPa | 0 mm | - | - | - |
| 1777650749 | 25° C | 29% | 1016.7 hPa | 0 mm | - | - | - |
| 1777649849 | 25.56° C | 29% | 1016.7 hPa | 0 mm | - | - | - |
| 1777648949 | 26.11° C | 31% | 1016.8 hPa | 0 mm | - | - | - |
| 1777648049 | 26.11° C | 31% | 1016.7 hPa | 0 mm | - | - | - |
| 1777647149 | 26.67° C | 31% | 1017 hPa | 0 mm | - | - | - |
| 1777646249 | 26.11° C | 32% | 1017.1 hPa | 0 mm | - | - | - |
| 1777645349 | 25.56° C | 31% | 1017.1 hPa | 0 mm | - | - | - |
| 1777644449 | 25.56° C | 32% | 1017.2 hPa | 0 mm | - | - | - |
| 1777643549 | 25.56° C | 32% | 1017.2 hPa | 0 mm | - | - | - |
| 1777642649 | 25° C | 33% | 1017.3 hPa | 0 mm | - | - | - |
| 1777641749 | 25° C | 32% | 1017.4 hPa | 0 mm | - | - | - |
| 1777640849 | 25.56° C | 33% | 1017.7 hPa | 0 mm | - | - | - |
| 1777639949 | 25.56° C | 33% | 1017.7 hPa | 0 mm | - | - | - |
| 1777639049 | 26.11° C | 33% | 1017.8 hPa | 0 mm | - | - | - |
| 1777638149 | 25.56° C | 33% | 1018.1 hPa | 0 mm | - | - | - |
| 1777637249 | 25.56° C | 34% | 1018.1 hPa | 0 mm | - | - | - |
| 1777636349 | 25.56° C | 35% | 1018.4 hPa | 0 mm | - | - | - |
| 1777635449 | 25.56° C | 35% | 1018.4 hPa | 0 mm | - | - | - |
* Rain latest hour (hover to see other rain measurements)
** Current wind speed in m/s (hover to see current wind gust speed)